NOZ6LT ENGM-LIEO

Flight info

Callsign NOZ6LT
Flight time 3h 3m
Altitude 35000
Route VIPPA DCT ESOSI DCT LOMPU DCT ABERU DCT ALUTU DCT BERAS M736 OLPIX DCT EKPEB DCT DEDOM DCT BATOX
Aircraft B738/M-SDE2E3FGHIRWXY/LB1

Departure

Time 2026-05-06 19:26
Airport Oslo-Gardermoen International Airport (ENGM)

Arrival

Time 2026-05-06 22:29
Airport Olbia Costa Smeralda Airport (LIEO)
Time Latitude Longitude Altitude Speed Heading
2026-05-06 19:07 60.19602 11.10181 684 ft 0 kts 286°
2026-05-06 19:17 60.19601 11.10187 684 ft 3 kts 286°
2026-05-06 19:18 60.19593 11.10239 678 ft 4 kts 286°
2026-05-06 19:18 60.19589 11.10270 683 ft 0 kts 286°
2026-05-06 19:21 60.19590 11.10268 682 ft 0 kts 298°
2026-05-06 19:21 60.19596 11.10271 679 ft 1 kts 12°
2026-05-06 19:21 60.19596 11.10291 680 ft 4 kts 95°
2026-05-06 19:21 60.19610 11.10395 678 ft 10 kts 44°
2026-05-06 19:22 60.19672 11.10450 681 ft 10 kts 15°
2026-05-06 19:22 60.19736 11.10488 683 ft 10 kts 18°
2026-05-06 19:22 60.19801 11.10526 681 ft 10 kts 16°
2026-05-06 19:22 60.19866 11.10574 681 ft 10 kts 42°
2026-05-06 19:23 60.19873 11.10705 683 ft 10 kts 105°
2026-05-06 19:23 60.19855 11.10834 683 ft 9 kts 105°
2026-05-06 19:23 60.19836 11.10959 681 ft 9 kts 107°
2026-05-06 19:23 60.19818 11.11082 682 ft 9 kts 106°
2026-05-06 19:24 60.19800 11.11209 681 ft 11 kts 106°
2026-05-06 19:24 60.19771 11.11376 680 ft 15 kts 117°
2026-05-06 19:24 60.19727 11.11588 683 ft 17 kts 105°
2026-05-06 19:24 60.19690 11.11812 680 ft 17 kts 123°
2026-05-06 19:25 60.19601 11.11941 679 ft 16 kts 172°
2026-05-06 19:25 60.19375 11.11820 678 ft 64 kts 196°
2026-05-06 19:25 60.18730 11.11443 683 ft 127 kts 196°
2026-05-06 19:25 60.17709 11.10848 704 ft 175 kts 197°
2026-05-06 19:26 60.16546 11.10188 1452 ft 169 kts 196°
2026-05-06 19:26 60.15393 11.09604 2183 ft 177 kts 196°
2026-05-06 19:26 60.14118 11.08953 2564 ft 201 kts 196°
2026-05-06 19:26 60.12738 11.08240 3074 ft 209 kts 193°
2026-05-06 19:27 60.11241 11.07873 3445 ft 225 kts 186°
2026-05-06 19:27 60.09631 11.07564 3790 ft 241 kts 188°
2026-05-06 19:27 60.07854 11.07154 3948 ft 270 kts 188°
2026-05-06 19:27 60.05995 11.06709 4908 ft 264 kts 190°
2026-05-06 19:28 60.04229 11.05799 5879 ft 262 kts 200°
2026-05-06 19:28 60.02506 11.04547 6692 ft 265 kts 202°
2026-05-06 19:28 60.00780 11.03229 7516 ft 266 kts 202°
2026-05-06 19:28 59.99044 11.01907 8340 ft 267 kts 202°
2026-05-06 19:29 59.97300 11.00595 9186 ft 268 kts 202°
2026-05-06 19:29 59.95551 10.99295 10030 ft 268 kts 202°
2026-05-06 19:29 59.93758 10.97973 10435 ft 285 kts 202°
2026-05-06 19:29 59.91821 10.96549 10619 ft 308 kts 202°
2026-05-06 19:30 59.89744 10.95035 10864 ft 326 kts 202°
2026-05-06 19:30 59.87587 10.93475 11455 ft 333 kts 203°
2026-05-06 19:30 59.85402 10.91905 12184 ft 335 kts 203°
2026-05-06 19:30 59.83199 10.90327 12941 ft 338 kts 204°
2026-05-06 19:31 59.80978 10.88736 13668 ft 341 kts 204°
2026-05-06 19:31 59.78738 10.87132 14297 ft 343 kts 205°
2026-05-06 19:31 59.74227 10.83915 15668 ft 346 kts 205°
2026-05-06 19:32 59.71951 10.82295 16269 ft 350 kts 205°
2026-05-06 19:32 59.69673 10.80673 16800 ft 355 kts 205°
2026-05-06 19:32 59.67342 10.79017 17443 ft 357 kts 205°
2026-05-06 19:32 59.65001 10.77358 18109 ft 358 kts 205°
2026-05-06 19:33 59.62645 10.75691 18659 ft 361 kts 205°
2026-05-06 19:33 59.60269 10.74010 19184 ft 364 kts 205°
2026-05-06 19:33 59.57876 10.72320 19704 ft 366 kts 205°
2026-05-06 19:33 59.55469 10.70624 20221 ft 369 kts 205°
2026-05-06 19:34 59.53010 10.69061 20743 ft 375 kts 200°
2026-05-06 19:34 59.50440 10.67984 21259 ft 380 kts 197°
2026-05-06 19:34 59.47819 10.67113 21765 ft 384 kts 195°
2026-05-06 19:34 59.45171 10.66280 22241 ft 386 kts 196°
2026-05-06 19:35 59.42502 10.65420 22581 ft 392 kts 196°
2026-05-06 19:35 59.39806 10.64520 23027 ft 394 kts 196°
2026-05-06 19:35 59.37097 10.63590 23533 ft 396 kts 196°
2026-05-06 19:35 59.34386 10.62643 23948 ft 397 kts 197°
2026-05-06 19:36 59.31666 10.61683 24366 ft 397 kts 197°
2026-05-06 19:36 59.28941 10.60719 24881 ft 398 kts 197°
2026-05-06 19:36 59.26208 10.59751 25275 ft 400 kts 197°
2026-05-06 19:36 59.23469 10.58782 25657 ft 401 kts 197°
2026-05-06 19:37 59.20719 10.57811 26028 ft 402 kts 197°
2026-05-06 19:37 59.17962 10.56840 26388 ft 403 kts 197°
2026-05-06 19:37 59.15195 10.55866 26671 ft 406 kts 197°
2026-05-06 19:37 59.13354 10.55218 26858 ft 408 kts 196°
2026-05-06 19:38 59.09608 10.53906 27317 ft 409 kts 197°
2026-05-06 19:38 59.06850 10.52666 27630 ft 403 kts 207°
2026-05-06 19:38 59.04438 10.50056 27912 ft 395 kts 220°
2026-05-06 19:38 59.02434 10.46478 28245 ft 390 kts 232°
2026-05-06 19:39 59.00868 10.42190 28557 ft 390 kts 238°
2026-05-06 19:39 58.99399 10.37762 28859 ft 391 kts 238°
2026-05-06 19:39 58.97912 10.33348 29263 ft 390 kts 238°
2026-05-06 19:39 58.96210 10.29281 29724 ft 391 kts 224°
2026-05-06 19:40 58.93936 10.26356 30191 ft 395 kts 211°
2026-05-06 19:40 58.91366 10.24395 30509 ft 402 kts 201°
2026-05-06 19:40 58.88564 10.23527 30594 ft 417 kts 187°
2026-05-06 19:40 58.85632 10.23745 30824 ft 423 kts 183°
2026-05-06 19:41 58.82699 10.24169 31161 ft 422 kts 182°
2026-05-06 19:41 58.79780 10.24625 31503 ft 421 kts 182°
2026-05-06 19:41 58.76864 10.25059 31783 ft 420 kts 183°
2026-05-06 19:41 58.73947 10.25459 32040 ft 420 kts 183°
2026-05-06 19:42 58.71030 10.25834 32318 ft 420 kts 183°
2026-05-06 19:42 58.68114 10.26196 32616 ft 419 kts 184°
2026-05-06 19:42 58.65208 10.26552 32892 ft 419 kts 184°
2026-05-06 19:42 58.62303 10.26908 33139 ft 419 kts 183°
2026-05-06 19:43 58.59402 10.27265 33440 ft 416 kts 183°
2026-05-06 19:43 58.56517 10.27752 33781 ft 417 kts 180°
2026-05-06 19:43 58.53635 10.28440 34009 ft 418 kts 179°
2026-05-06 19:43 58.50748 10.29204 34172 ft 419 kts 179°
2026-05-06 19:44 58.47856 10.29989 34317 ft 421 kts 179°
2026-05-06 19:44 58.44954 10.30776 34482 ft 421 kts 179°
2026-05-06 19:44 58.42051 10.31552 34660 ft 422 kts 179°
2026-05-06 19:44 58.39141 10.32317 34808 ft 422 kts 179°
2026-05-06 19:45 58.36228 10.33074 34943 ft 424 kts 179°
2026-05-06 19:45 58.33286 10.33830 34962 ft 426 kts 179°
2026-05-06 19:45 58.27466 10.35318 34969 ft 424 kts 179°
2026-05-06 19:46 58.21645 10.36803 34961 ft 420 kts 179°
2026-05-06 19:46 58.15870 10.38267 34971 ft 418 kts 179°
2026-05-06 19:47 58.10121 10.39718 34976 ft 416 kts 179°
2026-05-06 19:47 58.04377 10.41161 34953 ft 416 kts 179°
2026-05-06 19:48 57.98632 10.42600 34974 ft 417 kts 179°
2026-05-06 19:48 57.92865 10.44041 34972 ft 419 kts 179°
2026-05-06 19:49 57.87080 10.45482 34978 ft 420 kts 179°
2026-05-06 19:49 57.81267 10.46926 34979 ft 422 kts 179°
2026-05-06 19:50 57.76421 10.48127 34947 ft 423 kts 179°
2026-05-06 19:50 57.70542 10.49580 34973 ft 424 kts 179°
2026-05-06 19:51 57.64697 10.51020 34979 ft 424 kts 179°
2026-05-06 19:51 57.58853 10.52455 34981 ft 424 kts 179°
2026-05-06 19:52 57.53050 10.53875 34979 ft 423 kts 179°
2026-05-06 19:52 57.47221 10.55297 34949 ft 422 kts 178°
2026-05-06 19:53 57.41405 10.56711 34971 ft 421 kts 178°
2026-05-06 19:53 57.35602 10.58117 34986 ft 420 kts 178°
2026-05-06 19:54 57.29801 10.59517 34984 ft 420 kts 178°
2026-05-06 19:54 57.24005 10.60912 34988 ft 420 kts 178°
2026-05-06 19:55 57.18215 10.62301 34972 ft 420 kts 178°
2026-05-06 19:55 57.12424 10.63686 34985 ft 420 kts 178°
2026-05-06 19:56 57.06624 10.65068 34989 ft 420 kts 178°
2026-05-06 19:56 57.00818 10.66448 34964 ft 421 kts 178°
2026-05-06 19:57 56.95000 10.67826 34982 ft 422 kts 178°
2026-05-06 19:57 56.89165 10.69204 34977 ft 423 kts 178°
2026-05-06 19:58 56.83313 10.70582 34990 ft 424 kts 178°
2026-05-06 19:58 56.77444 10.71960 34987 ft 426 kts 178°
2026-05-06 19:59 56.71561 10.73336 34989 ft 427 kts 178°
2026-05-06 19:59 56.65665 10.74712 34983 ft 428 kts 178°
2026-05-06 20:00 56.59760 10.76085 34984 ft 427 kts 177°
2026-05-06 20:00 56.53863 10.77453 34991 ft 427 kts 177°
2026-05-06 20:01 56.47972 10.78814 34994 ft 426 kts 177°
2026-05-06 20:01 56.42089 10.80170 34983 ft 426 kts 177°
2026-05-06 20:02 56.36218 10.81518 34973 ft 425 kts 177°
2026-05-06 20:02 56.30358 10.82859 34993 ft 424 kts 177°
2026-05-06 20:03 56.24510 10.84193 34979 ft 423 kts 177°
2026-05-06 20:03 56.18669 10.85522 34981 ft 423 kts 177°
2026-05-06 20:04 56.12834 10.86845 34981 ft 422 kts 177°
2026-05-06 20:04 56.07001 10.88164 34969 ft 422 kts 176°
2026-05-06 20:05 56.01176 10.89477 34980 ft 422 kts 176°
2026-05-06 20:05 55.95344 10.90787 34982 ft 422 kts 176°
2026-05-06 20:06 55.89507 10.92095 34978 ft 423 kts 176°
2026-05-06 20:06 55.83699 10.93392 34978 ft 424 kts 176°
2026-05-06 20:07 55.77844 10.94696 34969 ft 424 kts 176°
2026-05-06 20:07 55.71944 10.96006 34981 ft 425 kts 176°
2026-05-06 20:08 55.66108 10.97298 34985 ft 426 kts 176°
2026-05-06 20:08 55.60220 10.98597 34980 ft 427 kts 176°
2026-05-06 20:09 55.54324 10.99894 34981 ft 427 kts 176°
2026-05-06 20:09 55.48423 11.01189 34981 ft 428 kts 176°
2026-05-06 20:10 55.42515 11.02481 34983 ft 428 kts 176°
2026-05-06 20:10 55.36604 11.03770 34977 ft 428 kts 176°
2026-05-06 20:11 55.30698 11.05054 34982 ft 427 kts 176°
2026-05-06 20:11 55.24797 11.06333 34967 ft 427 kts 176°
2026-05-06 20:12 55.18904 11.07607 34970 ft 426 kts 176°
2026-05-06 20:12 55.13015 11.08876 34976 ft 426 kts 176°
2026-05-06 20:13 55.07129 11.10140 34974 ft 426 kts 176°
2026-05-06 20:13 55.01237 11.11402 34958 ft 427 kts 176°
2026-05-06 20:14 54.95345 11.12660 34971 ft 427 kts 176°
2026-05-06 20:14 54.89484 11.13908 34975 ft 427 kts 176°
2026-05-06 20:15 54.83575 11.15162 34968 ft 428 kts 176°
2026-05-06 20:15 54.77662 11.16414 34967 ft 429 kts 176°
2026-05-06 20:16 54.71733 11.17665 34954 ft 429 kts 176°
2026-05-06 20:16 54.65799 11.18914 34967 ft 430 kts 176°
2026-05-06 20:17 54.59859 11.20161 34956 ft 430 kts 176°
2026-05-06 20:17 54.53912 11.21436 34956 ft 431 kts 175°
2026-05-06 20:18 54.47963 11.22737 34940 ft 431 kts 175°
2026-05-06 20:18 54.42011 11.24035 34945 ft 431 kts 175°
2026-05-06 20:19 54.36061 11.25326 34946 ft 431 kts 175°
2026-05-06 20:19 54.30107 11.26612 34939 ft 431 kts 175°
2026-05-06 20:20 54.24157 11.27892 34941 ft 431 kts 175°
2026-05-06 20:20 54.18207 11.29169 34925 ft 431 kts 175°
2026-05-06 20:21 54.12266 11.30440 34929 ft 430 kts 175°
2026-05-06 20:21 54.06331 11.31706 34927 ft 430 kts 175°
2026-05-06 20:22 54.00396 11.32969 34921 ft 430 kts 175°
2026-05-06 20:22 53.94467 11.34226 34913 ft 430 kts 176°
2026-05-06 20:23 53.88534 11.35481 34915 ft 429 kts 176°
2026-05-06 20:23 53.82607 11.36732 34915 ft 429 kts 176°
2026-05-06 20:24 53.76683 11.37977 34909 ft 429 kts 176°
2026-05-06 20:24 53.70767 11.39218 34911 ft 429 kts 176°
2026-05-06 20:25 53.64840 11.40458 34907 ft 429 kts 176°
2026-05-06 20:25 53.58917 11.41693 34910 ft 429 kts 176°
2026-05-06 20:26 53.52996 11.42924 34900 ft 429 kts 176°
2026-05-06 20:26 53.47078 11.44151 34897 ft 428 kts 176°
2026-05-06 20:27 53.41170 11.45373 34889 ft 427 kts 176°
2026-05-06 20:27 53.35269 11.46590 34893 ft 427 kts 176°
2026-05-06 20:28 53.29381 11.47801 34892 ft 426 kts 176°
2026-05-06 20:28 53.23499 11.49007 34891 ft 425 kts 176°
2026-05-06 20:29 53.17624 11.50208 34879 ft 425 kts 176°
2026-05-06 20:29 53.11761 11.51403 34881 ft 424 kts 176°
2026-05-06 20:30 53.03018 11.53180 34882 ft 423 kts 176°
2026-05-06 20:31 52.97141 11.54369 34893 ft 429 kts 176°
2026-05-06 20:31 52.91161 11.55573 34889 ft 437 kts 176°
2026-05-06 20:32 52.85083 11.56797 34880 ft 443 kts 176°
2026-05-06 20:32 52.78925 11.58034 34876 ft 448 kts 176°
2026-05-06 20:33 52.72717 11.59279 34864 ft 450 kts 176°
2026-05-06 20:33 52.66541 11.60516 34826 ft 443 kts 176°
2026-05-06 20:34 52.60463 11.61729 34852 ft 439 kts 176°
2026-05-06 20:34 52.54409 11.62930 34851 ft 438 kts 176°
2026-05-06 20:35 52.48362 11.64126 34859 ft 438 kts 176°
2026-05-06 20:35 52.43333 11.65119 34846 ft 438 kts 176°
2026-05-06 20:36 52.37237 11.66319 34844 ft 438 kts 176°
2026-05-06 20:36 52.31182 11.67509 34851 ft 439 kts 176°
2026-05-06 20:37 52.25124 11.68696 34843 ft 439 kts 176°
2026-05-06 20:37 52.19052 11.69883 34838 ft 439 kts 176°
2026-05-06 20:38 52.12994 11.71064 34832 ft 438 kts 177°
2026-05-06 20:38 52.06939 11.72241 34828 ft 438 kts 177°
2026-05-06 20:39 52.00895 11.73412 34831 ft 437 kts 177°
2026-05-06 20:39 51.94894 11.74572 34831 ft 437 kts 177°
2026-05-06 20:40 51.88855 11.75736 34830 ft 437 kts 177°
2026-05-06 20:40 51.82824 11.76895 34819 ft 436 kts 178°
2026-05-06 20:41 51.76803 11.78050 34823 ft 436 kts 178°
2026-05-06 20:41 51.70784 11.79200 34820 ft 436 kts 178°
2026-05-06 20:42 51.64769 11.80347 34816 ft 435 kts 178°
2026-05-06 20:42 51.58769 11.81489 34814 ft 434 kts 178°
2026-05-06 20:43 51.52774 11.82626 34803 ft 434 kts 178°
2026-05-06 20:43 51.46784 11.83759 34805 ft 433 kts 178°
2026-05-06 20:44 51.40801 11.84888 34809 ft 432 kts 178°
2026-05-06 20:44 51.34838 11.86010 34802 ft 431 kts 178°
2026-05-06 20:45 51.28886 11.87127 34801 ft 430 kts 178°
2026-05-06 20:45 51.22945 11.88239 34795 ft 430 kts 178°
2026-05-06 20:46 51.17014 11.89346 34795 ft 428 kts 177°
2026-05-06 20:46 51.11101 11.90448 34789 ft 427 kts 177°
2026-05-06 20:47 51.05200 11.91545 34786 ft 426 kts 178°
2026-05-06 20:47 50.99315 11.92635 34795 ft 426 kts 178°
2026-05-06 20:48 50.93427 11.93722 34792 ft 426 kts 177°
2026-05-06 20:48 50.87541 11.94806 34793 ft 426 kts 177°
2026-05-06 20:49 50.81656 11.95888 34791 ft 426 kts 177°
2026-05-06 20:49 50.75813 11.96960 34797 ft 426 kts 177°
2026-05-06 20:50 50.69925 11.98037 34789 ft 426 kts 177°
2026-05-06 20:50 50.64035 11.99112 34795 ft 426 kts 177°
2026-05-06 20:51 50.58150 12.00183 34809 ft 426 kts 177°
2026-05-06 20:51 50.52263 12.01252 34811 ft 426 kts 177°
2026-05-06 20:52 50.46372 12.02319 34814 ft 426 kts 177°
2026-05-06 20:52 50.40486 12.03382 34824 ft 426 kts 177°
2026-05-06 20:53 50.34591 12.04444 34823 ft 426 kts 177°
2026-05-06 20:53 50.28705 12.05503 34815 ft 426 kts 178°
2026-05-06 20:54 50.22823 12.06558 34823 ft 424 kts 177°
2026-05-06 20:54 50.16968 12.07605 34819 ft 423 kts 177°
2026-05-06 20:55 50.11132 12.08647 34811 ft 422 kts 177°
2026-05-06 20:55 50.05309 12.09535 34806 ft 418 kts 182°
2026-05-06 20:56 49.99500 12.09590 34802 ft 417 kts 183°
2026-05-06 20:56 49.93703 12.09537 34804 ft 417 kts 183°
2026-05-06 20:57 49.87903 12.09524 34814 ft 417 kts 183°
2026-05-06 20:57 49.82106 12.09545 34821 ft 417 kts 182°
2026-05-06 20:58 49.76306 12.09578 34816 ft 417 kts 182°
2026-05-06 20:58 49.70501 12.09612 34821 ft 417 kts 182°
2026-05-06 20:59 49.64693 12.09647 34824 ft 418 kts 182°
2026-05-06 20:59 49.58874 12.09681 34820 ft 418 kts 182°
2026-05-06 21:00 49.53053 12.09715 34814 ft 419 kts 182°
2026-05-06 21:00 49.47220 12.09750 34857 ft 419 kts 182°
2026-05-06 21:01 49.41377 12.09782 34842 ft 421 kts 182°
2026-05-06 21:01 49.35515 12.09815 34844 ft 421 kts 182°
2026-05-06 21:02 49.29658 12.09849 34849 ft 421 kts 182°
2026-05-06 21:02 49.23804 12.09883 34849 ft 420 kts 182°
2026-05-06 21:03 49.17996 12.09916 34861 ft 420 kts 182°
2026-05-06 21:03 49.12148 12.09949 34855 ft 420 kts 182°
2026-05-06 21:04 49.06298 12.09982 34855 ft 421 kts 182°
2026-05-06 21:04 49.00440 12.10015 34856 ft 421 kts 182°
2026-05-06 21:05 48.94574 12.10048 34867 ft 422 kts 182°
2026-05-06 21:05 48.88697 12.10081 34873 ft 422 kts 182°
2026-05-06 21:06 48.82812 12.10114 34870 ft 423 kts 182°
2026-05-06 21:06 48.76922 12.10148 34882 ft 423 kts 182°
2026-05-06 21:07 48.71029 12.10181 34889 ft 424 kts 182°
2026-05-06 21:07 48.65126 12.10214 34874 ft 424 kts 183°
2026-05-06 21:08 48.59230 12.10247 34893 ft 424 kts 183°
2026-05-06 21:08 48.53327 12.10279 34897 ft 424 kts 183°
2026-05-06 21:09 48.47461 12.09782 34897 ft 420 kts 193°
2026-05-06 21:09 48.41737 12.08001 34900 ft 420 kts 194°
2026-05-06 21:10 48.36001 12.06251 34914 ft 421 kts 193°
2026-05-06 21:10 48.30245 12.04528 34910 ft 422 kts 193°
2026-05-06 21:11 48.24482 12.02817 34907 ft 422 kts 193°
2026-05-06 21:11 48.18716 12.01110 34909 ft 422 kts 193°
2026-05-06 21:12 48.12949 11.99406 34907 ft 423 kts 193°
2026-05-06 21:12 48.07182 11.97706 34909 ft 423 kts 193°
2026-05-06 21:13 48.01448 11.96019 34892 ft 423 kts 193°
2026-05-06 21:13 47.95675 11.94324 34906 ft 423 kts 193°
2026-05-06 21:14 47.89902 11.92635 34907 ft 422 kts 194°
2026-05-06 21:14 47.84147 11.90954 34897 ft 421 kts 194°
2026-05-06 21:15 47.78365 11.89268 34911 ft 420 kts 194°
2026-05-06 21:15 47.72669 11.87611 34907 ft 420 kts 194°
2026-05-06 21:16 47.66936 11.85947 34900 ft 419 kts 194°
2026-05-06 21:16 47.61203 11.84293 34893 ft 420 kts 194°
2026-05-06 21:17 47.55489 11.82598 34903 ft 417 kts 194°
2026-05-06 21:17 47.49786 11.80973 34881 ft 417 kts 194°
2026-05-06 21:18 47.44088 11.79348 34880 ft 417 kts 194°
2026-05-06 21:18 47.38383 11.77711 34881 ft 417 kts 194°
2026-05-06 21:19 47.32613 11.76726 34891 ft 420 kts 186°
2026-05-06 21:19 47.26778 11.76448 34873 ft 420 kts 186°
2026-05-06 21:20 47.20947 11.76109 34867 ft 419 kts 186°
2026-05-06 21:20 47.15130 11.75774 34859 ft 418 kts 187°
2026-05-06 21:21 47.09507 11.74180 34878 ft 409 kts 201°
2026-05-06 21:21 47.05194 11.71399 34880 ft 408 kts 207°
2026-05-06 21:22 47.00046 11.67884 34878 ft 408 kts 206°
2026-05-06 21:22 46.94873 11.64415 34893 ft 408 kts 206°
2026-05-06 21:23 46.89705 11.60973 34870 ft 409 kts 206°
2026-05-06 21:23 46.84536 11.57529 34906 ft 409 kts 206°
2026-05-06 21:24 46.79361 11.54079 34857 ft 409 kts 206°
2026-05-06 21:24 46.74197 11.50648 34908 ft 408 kts 206°
2026-05-06 21:25 46.68967 11.47404 34929 ft 410 kts 200°
2026-05-06 21:25 46.63340 11.45730 34932 ft 414 kts 193°
2026-05-06 21:26 46.57654 11.44386 34948 ft 414 kts 193°
2026-05-06 21:26 46.51964 11.43018 34932 ft 414 kts 193°
2026-05-06 21:27 46.46278 11.41636 34938 ft 415 kts 193°
2026-05-06 21:27 46.40594 11.40250 34943 ft 413 kts 193°
2026-05-06 21:28 46.34939 11.38876 34928 ft 411 kts 193°
2026-05-06 21:28 46.29305 11.37506 34935 ft 410 kts 193°
2026-05-06 21:29 46.23686 11.36144 34941 ft 409 kts 193°
2026-05-06 21:29 46.18079 11.34787 34942 ft 409 kts 194°
2026-05-06 21:30 46.12470 11.33428 34941 ft 409 kts 193°
2026-05-06 21:30 46.06852 11.32075 34945 ft 409 kts 193°
2026-05-06 21:31 46.01233 11.30749 34933 ft 410 kts 193°
2026-05-06 21:31 45.95656 11.29449 34945 ft 407 kts 194°
2026-05-06 21:32 45.90071 11.28076 34880 ft 407 kts 193°
2026-05-06 21:32 45.81699 11.26301 34919 ft 406 kts 194°
2026-05-06 21:33 45.76142 11.24856 34928 ft 407 kts 194°
2026-05-06 21:33 45.70542 11.23441 34933 ft 409 kts 194°
2026-05-06 21:34 45.64918 11.22075 34893 ft 409 kts 194°
2026-05-06 21:34 45.59310 11.20740 34918 ft 408 kts 194°
2026-05-06 21:35 45.53696 11.19420 34927 ft 409 kts 194°
2026-05-06 21:35 45.48065 11.18088 34932 ft 411 kts 194°
2026-05-06 21:36 45.42417 11.16757 34932 ft 411 kts 194°
2026-05-06 21:36 45.36774 11.15432 34924 ft 410 kts 194°
2026-05-06 21:37 45.31147 11.14114 34930 ft 409 kts 194°
2026-05-06 21:37 45.25531 11.12801 34937 ft 409 kts 194°
2026-05-06 21:38 45.19923 11.11492 34933 ft 408 kts 194°
2026-05-06 21:38 45.14324 11.10188 34937 ft 408 kts 194°
2026-05-06 21:39 45.08728 11.08887 34940 ft 408 kts 194°
2026-05-06 21:39 45.03125 11.07586 34913 ft 408 kts 194°
2026-05-06 21:40 44.97516 11.06287 34914 ft 409 kts 194°
2026-05-06 21:40 44.91893 11.04987 34922 ft 410 kts 194°
2026-05-06 21:41 44.86290 11.03695 34922 ft 411 kts 194°
2026-05-06 21:41 44.80647 11.02397 34924 ft 411 kts 194°
2026-05-06 21:42 44.75004 11.01101 34931 ft 411 kts 194°
2026-05-06 21:42 44.69363 10.99808 34931 ft 411 kts 194°
2026-05-06 21:43 44.63730 10.98519 34942 ft 409 kts 194°
2026-05-06 21:43 44.58121 10.97239 34933 ft 407 kts 194°
2026-05-06 21:44 44.52541 10.95968 34944 ft 405 kts 194°
2026-05-06 21:44 44.46978 10.94703 34926 ft 404 kts 194°
2026-05-06 21:45 44.41440 10.93444 34931 ft 403 kts 194°
2026-05-06 21:45 44.35900 10.92189 34950 ft 403 kts 194°
2026-05-06 21:46 44.30356 10.90934 34963 ft 403 kts 194°
2026-05-06 21:46 44.24810 10.89682 34963 ft 404 kts 194°
2026-05-06 21:47 44.19267 10.88433 34960 ft 404 kts 194°
2026-05-06 21:47 44.13709 10.87183 34970 ft 404 kts 194°
2026-05-06 21:48 44.08163 10.85938 34914 ft 405 kts 193°
2026-05-06 21:48 44.02556 10.84679 34968 ft 412 kts 193°
2026-05-06 21:49 43.96867 10.83418 34977 ft 415 kts 193°
2026-05-06 21:49 43.91154 10.82139 35002 ft 416 kts 193°
2026-05-06 21:50 43.85425 10.80859 34981 ft 418 kts 193°
2026-05-06 21:50 43.79707 10.79587 34991 ft 419 kts 193°
2026-05-06 21:51 43.73940 10.78308 34987 ft 420 kts 193°
2026-05-06 21:51 43.68132 10.77023 34980 ft 420 kts 193°
2026-05-06 21:52 43.62356 10.75747 34978 ft 420 kts 193°
2026-05-06 21:52 43.56618 10.74482 34983 ft 421 kts 193°
2026-05-06 21:53 43.50834 10.73208 34969 ft 421 kts 193°
2026-05-06 21:53 43.45046 10.71936 34964 ft 421 kts 193°
2026-05-06 21:54 43.39265 10.70669 34970 ft 421 kts 193°
2026-05-06 21:54 43.33479 10.69402 34961 ft 421 kts 193°
2026-05-06 21:55 43.27689 10.68138 34958 ft 421 kts 193°
2026-05-06 21:55 43.21898 10.66875 34971 ft 422 kts 193°
2026-05-06 21:56 43.16098 10.65613 34960 ft 422 kts 193°
2026-05-06 21:56 43.10300 10.64354 34954 ft 422 kts 193°
2026-05-06 21:57 43.04499 10.63096 34966 ft 422 kts 193°
2026-05-06 21:57 42.98695 10.61841 34962 ft 422 kts 193°
2026-05-06 21:58 42.92891 10.60588 34941 ft 422 kts 193°
2026-05-06 21:58 42.87082 10.59336 34956 ft 423 kts 193°
2026-05-06 21:59 42.81270 10.58086 34958 ft 423 kts 193°
2026-05-06 21:59 42.75457 10.56837 34968 ft 423 kts 193°
2026-05-06 22:00 42.69636 10.55590 34949 ft 423 kts 193°
2026-05-06 22:00 42.63821 10.54346 34955 ft 423 kts 193°
2026-05-06 22:01 42.58006 10.53105 34954 ft 423 kts 193°
2026-05-06 22:01 42.52182 10.51864 34931 ft 424 kts 193°
2026-05-06 22:02 42.46357 10.50625 34949 ft 424 kts 193°
2026-05-06 22:02 42.40521 10.49386 34955 ft 425 kts 193°
2026-05-06 22:03 42.34675 10.48147 34957 ft 425 kts 193°
2026-05-06 22:03 42.28867 10.46919 34956 ft 426 kts 193°
2026-05-06 22:04 42.22976 10.45675 34956 ft 426 kts 193°
2026-05-06 22:04 42.17123 10.44441 34959 ft 426 kts 193°
2026-05-06 22:05 42.11275 10.43189 34950 ft 425 kts 195°
2026-05-06 22:05 42.05559 10.41484 34958 ft 423 kts 197°
2026-05-06 22:06 41.99826 10.39658 34960 ft 423 kts 197°
2026-05-06 22:06 41.94076 10.37847 34613 ft 430 kts 197°
2026-05-06 22:07 41.91170 10.36941 34023 ft 427 kts 197°
2026-05-06 22:07 41.89216 10.36337 33518 ft 427 kts 197°
2026-05-06 22:07 41.86324 10.35445 32809 ft 426 kts 197°
2026-05-06 22:07 41.82496 10.34267 31830 ft 426 kts 197°
2026-05-06 22:08 41.79608 10.33378 31065 ft 427 kts 197°
2026-05-06 22:08 41.77689 10.32788 30573 ft 427 kts 197°
2026-05-06 22:08 41.74792 10.31897 29745 ft 428 kts 197°
2026-05-06 22:08 41.70903 10.30702 28522 ft 429 kts 197°
2026-05-06 22:09 41.68973 10.30111 27940 ft 429 kts 197°
2026-05-06 22:09 41.66058 10.29217 27033 ft 430 kts 196°
2026-05-06 22:09 41.63136 10.28322 26086 ft 432 kts 196°
2026-05-06 22:09 41.60213 10.27428 25419 ft 429 kts 196°
2026-05-06 22:10 41.57351 10.26556 25223 ft 414 kts 196°
2026-05-06 22:10 41.54596 10.25720 25061 ft 399 kts 196°
2026-05-06 22:10 41.51901 10.24899 24286 ft 394 kts 196°
2026-05-06 22:10 41.49250 10.24091 23607 ft 387 kts 196°
2026-05-06 22:11 41.46649 10.23297 22809 ft 381 kts 196°
2026-05-06 22:11 41.44086 10.22516 22018 ft 375 kts 195°
2026-05-06 22:11 41.41555 10.21745 21247 ft 370 kts 195°
2026-05-06 22:11 41.39061 10.20986 20502 ft 366 kts 195°
2026-05-06 22:12 41.36593 10.20235 19780 ft 361 kts 195°
2026-05-06 22:12 41.34164 10.19497 19067 ft 356 kts 195°
2026-05-06 22:12 41.31770 10.18771 18348 ft 351 kts 195°
2026-05-06 22:12 41.29398 10.18051 17566 ft 348 kts 194°
2026-05-06 22:13 41.27043 10.17338 16784 ft 345 kts 194°
2026-05-06 22:13 41.24725 10.16638 16274 ft 336 kts 194°
2026-05-06 22:13 41.22563 10.15660 15861 ft 323 kts 212°
2026-05-06 22:13 41.20864 10.13843 15646 ft 306 kts 226°
2026-05-06 22:14 41.19631 10.11627 15386 ft 293 kts 239°
2026-05-06 22:14 41.18670 10.09287 15094 ft 284 kts 242°
2026-05-06 22:14 41.17773 10.06986 14799 ft 276 kts 242°
2026-05-06 22:14 41.16841 10.04796 14500 ft 271 kts 237°
2026-05-06 22:15 41.15812 10.02689 14237 ft 274 kts 236°
2026-05-06 22:15 41.14748 10.00555 13953 ft 282 kts 236°
2026-05-06 22:15 41.13645 9.98343 13616 ft 291 kts 236°
2026-05-06 22:15 41.12528 9.96089 13271 ft 292 kts 236°
2026-05-06 22:16 41.11424 9.93853 13007 ft 288 kts 237°
2026-05-06 22:16 41.10338 9.91645 12811 ft 282 kts 237°
2026-05-06 22:16 41.09284 9.89500 12378 ft 278 kts 237°
2026-05-06 22:16 41.08223 9.87338 11794 ft 280 kts 237°
2026-05-06 22:17 41.07153 9.85159 11308 ft 284 kts 237°
2026-05-06 22:17 41.06065 9.82946 10833 ft 289 kts 237°
2026-05-06 22:17 41.04964 9.80707 10342 ft 290 kts 237°
2026-05-06 22:17 41.03867 9.78480 9869 ft 287 kts 237°
2026-05-06 22:18 41.02850 9.76228 9328 ft 284 kts 248°
2026-05-06 22:18 41.02498 9.73688 8811 ft 281 kts 271°
2026-05-06 22:18 41.02914 9.71176 8301 ft 281 kts 293°
2026-05-06 22:18 41.04005 9.69051 7802 ft 281 kts 314°
2026-05-06 22:19 41.05636 9.67635 7311 ft 283 kts 338°
2026-05-06 22:19 41.07565 9.67186 6815 ft 284 kts
2026-05-06 22:19 41.09462 9.67812 6505 ft 278 kts 25°
2026-05-06 22:19 41.11012 9.69213 6326 ft 266 kts 45°
2026-05-06 22:20 41.12145 9.71119 6014 ft 260 kts 55°
2026-05-06 22:20 41.13138 9.73107 5648 ft 257 kts 56°
2026-05-06 22:20 41.14113 9.75077 5272 ft 255 kts 56°
2026-05-06 22:20 41.15091 9.77035 4905 ft 255 kts 56°
2026-05-06 22:21 41.16069 9.79013 4536 ft 258 kts 60°
2026-05-06 22:21 41.16544 9.81297 4207 ft 260 kts 93°
2026-05-06 22:21 41.16072 9.83586 3976 ft 260 kts 124°
2026-05-06 22:21 41.14834 9.85267 3745 ft 254 kts 153°
2026-05-06 22:22 41.13183 9.85917 3488 ft 247 kts 181°
2026-05-06 22:22 41.11534 9.85472 3237 ft 240 kts 207°
2026-05-06 22:22 41.10210 9.84269 3070 ft 228 kts 223°
2026-05-06 22:22 41.09079 9.82811 3011 ft 225 kts 226°
2026-05-06 22:23 41.08003 9.81364 2995 ft 220 kts 226°
2026-05-06 22:23 41.06952 9.79952 2974 ft 211 kts 226°
2026-05-06 22:23 41.05925 9.78579 2982 ft 210 kts 226°
2026-05-06 22:23 41.04888 9.77201 2982 ft 213 kts 226°
2026-05-06 22:24 41.03836 9.75812 2972 ft 211 kts 226°
2026-05-06 22:24 41.02822 9.74478 2967 ft 200 kts 226°
2026-05-06 22:24 41.01855 9.73210 2974 ft 192 kts 226°
2026-05-06 22:24 41.00910 9.71970 2980 ft 192 kts 226°
2026-05-06 22:25 40.99964 9.70722 2994 ft 189 kts 227°
2026-05-06 22:25 40.99123 9.69413 2923 ft 186 kts 234°
2026-05-06 22:25 40.98370 9.68042 2700 ft 182 kts 236°
2026-05-06 22:25 40.97659 9.66687 2462 ft 175 kts 236°
2026-05-06 22:26 40.96993 9.65413 2249 ft 163 kts 236°
2026-05-06 22:26 40.96357 9.64195 2027 ft 158 kts 236°
2026-05-06 22:26 40.95733 9.63001 1828 ft 159 kts 237°
2026-05-06 22:26 40.95106 9.61801 1645 ft 160 kts 237°
2026-05-06 22:27 40.94473 9.60589 1402 ft 159 kts 236°
2026-05-06 22:27 40.93857 9.59398 1093 ft 156 kts 236°
2026-05-06 22:27 40.93262 9.58233 908 ft 150 kts 235°
2026-05-06 22:27 40.92654 9.57091 751 ft 154 kts 235°
2026-05-06 22:28 40.92052 9.55929 566 ft 151 kts 235°
2026-05-06 22:28 40.91455 9.54797 322 ft 149 kts 236°
2026-05-06 22:28 40.90877 9.53686 152 ft 145 kts 236°
2026-05-06 22:28 40.90298 9.52583 34 ft 141 kts 235°
2026-05-06 22:29 40.89863 9.51759 32 ft 78 kts 236°
2026-05-06 22:29 40.89649 9.51349 33 ft 31 kts 235°
2026-05-06 22:29 40.89660 9.51121 31 ft 21 kts 317°
2026-05-06 22:29 40.89777 9.51194 33 ft 21 kts 60°
2026-05-06 22:30 40.89855 9.51350 33 ft 20 kts 53°
2026-05-06 22:30 40.89929 9.51485 33 ft 12 kts 39°
2026-05-06 22:30 40.90007 9.51511 33 ft 12 kts 344°
2026-05-06 22:30 40.90079 9.51495 33 ft 11 kts 34°
2026-05-06 22:31 40.90115 9.51556 33 ft 4 kts 57°
2026-05-06 22:31 40.90135 9.51563 33 ft 4 kts 339°
2026-05-06 22:31 40.90158 9.51548 33 ft 4 kts 333°
2026-05-06 22:31 40.90171 9.51537 33 ft 0 kts 324°